KK7N Weather Reports


time (UTC)temp
F
wind
direction
speed
knots
gust
knots
rain 1hr
in
rain 24hr
in
rain mn
in
humidity
%
barometer
mb
20260906220056 60 0 1.7 3.5 0.00 0.49 0.49 85 1017.7
20260906214544 59 240 0.9 3.5 0.00 0.49 0.49 87 1017.6
20260906213059 59 0 0.0 0.0 0.00 0.49 0.49 88 1017.6
20260906211554 58 0 0.0 0.0 0.00 0.49 0.49 90 1017.5
20260906210056 58 0 0.0 0.0 0.00 0.49 0.49 92 1017.5
20260906204603 57 0 0.0 0.0 0.00 0.49 0.49 94 1017.5
20260906203058 57 0 0.0 0.0 0.00 0.49 0.49 93 1017.4
20260906201605 57 0 0.0 0.0 0.00 0.49 0.49 93 1017.5
20260906200049 57 0 0.0 0.0 0.00 0.49 0.49 93 1017.3
20260906194559 57 0 0.0 0.0 0.00 0.49 0.49 93 1017.0
20260906193054 56 0 0.0 0.0 0.00 0.49 0.49 93 1017.0
20260906191551 56 0 0.0 0.0 0.00 0.49 0.49 94 1017.2
20260906190049 56 0 0.0 0.0 0.00 0.49 0.49 94 1017.1
20260906184558 56 0 0.0 0.0 0.00 0.49 0.49 94 1017.1
20260906183051 56 0 0.0 0.0 0.02 0.49 0.49 94 1017.2
20260906181556 55 0 0.0 0.0 0.04 0.49 0.49 94 1017.3
20260906180106 55 0 0.0 0.0 0.06 0.49 0.49 94 1017.2
20260906174556 55 0 0.0 0.0 0.10 0.49 0.49 94 1017.0
20260906173056 55 0 0.0 0.0 0.10 0.47 0.47 94 1017.1
20260906171600 55 0 0.0 0.0 0.11 0.45 0.45 94 1017.1
20260906170103 55 0 0.0 0.0 0.12 0.43 0.43 94 1017.0
20260906164553 55 0 0.0 0.0 0.09 0.39 0.39 94 1017.0
20260906163106 55 0 0.0 0.0 0.10 0.37 0.37 94 1016.9
20260906161553 55 0 0.0 0.0 0.10 0.34 0.34 93 1016.8
20260906160051 55 0 0.0 0.0 0.12 0.31 0.31 93 1016.6
20260906154559 55 0 0.0 0.0 0.14 0.30 0.30 93 1016.7
20260906153054 55 0 0.0 0.0 0.15 0.27 0.27 93 1016.5
20260906151559 55 0 0.0 0.0 0.14 0.23 0.23 93 1016.5
20260906150049 55 0 0.0 0.0 0.12 0.19 0.19 93 1016.3
20260906144548 55 0 0.0 0.0 0.10 0.16 0.16 92 1016.2
20260906143054 55 0 0.0 0.0 0.07 0.12 0.12 92 1015.9
20260906141552 55 140 0.0 1.7 0.05 0.09 0.09 92 1015.8
20260906140051 55 0 0.0 0.0 0.06 0.07 0.07 91 1015.7
20260906134555 55 173 0.9 2.6 0.06 0.06 0.06 91 1015.6
20260906133055 55 0 0.9 3.5 0.05 0.05 0.05 92 1015.7
20260906131554 55 0 0.0 0.0 0.04 0.04 0.04 91 1015.5
20260906130053 56 0 0.0 0.0 0.01 0.01 0.01 91 1015.3
20260906124550 56 140 0.9 2.6 0.00 0.00 0.00 90 1015.4
20260906123056 56 0 0.0 0.0 0.00 0.00 0.00 90 1015.3
20260906121556 56 0 0.0 0.0 0.00 0.00 0.00 90 1015.4
20260906120109 56 0 0.0 0.0 0.00 0.00 0.00 90 1015.5
20260906114558 56 0 0.0 0.0 0.00 0.00 0.00 89 1015.4
20260906113049 56 0 0.0 1.7 0.00 0.00 0.00 89 1015.3
20260906111606 56 0 0.0 0.0 0.00 0.00 0.00 88 1015.5
20260906110048 56 0 0.0 0.0 0.00 0.00 0.00 88 1015.5
20260906104545 56 0 0.0 0.0 0.00 0.00 0.00 88 1015.3
20260906103057 56 0 0.0 0.0 0.00 0.00 0.00 87 1015.4
20260906101554 56 0 0.0 0.0 0.00 0.00 0.00 87 1015.3
20260906100058 56 0 0.0 0.0 0.00 0.00 0.00 87 1015.4
20260906094548 56 0 0.0 0.0 0.00 0.00 0.00 87 1015.4
20260906093050 56 0 0.0 0.0 0.00 0.00 0.00 87 1015.4
20260906091550 57 0 0.0 0.9 0.00 0.00 0.00 86 1015.2
20260906090059 57 0 0.0 3.5 0.00 0.00 0.00 84 1015.3
20260906084554 57 0 0.9 2.6 0.00 0.00 0.00 85 1015.4
20260906083054 56 122 0.9 4.3 0.00 0.00 0.00 86 1015.4
20260906081558 56 0 0.0 0.0 0.00 0.00 0.00 86 1015.2
20260906080107 56 0 0.0 0.0 0.00 0.00 0.00 86 1015.3
20260906074600 57 0 0.0 1.7 0.00 0.00 0.00 85 1015.4
20260906073051 57 0 0.0 2.6 0.00 0.00 0.00 86 1015.5
20260906071557 57 0 0.0 0.0 0.00 0.00 0.00 85 1015.3
20260906070056 57 0 0.0 0.0 0.00 0.00 0.00 85 1015.3
20260906064550 57 0 0.0 0.0 0.00 0.00 0.00 85 1015.4
20260906063053 57 174 0.0 0.0 0.00 0.00 0.00 84 1015.3
20260906061557 58 0 0.0 2.6 0.00 0.00 0.00 83 1015.5
20260906060055 58 140 0.0 2.6 0.00 0.00 0.00 82 1015.6
20260906054556 58 0 0.9 2.6 0.00 0.00 0.00 82 1015.6
20260906053054 58 176 0.9 3.5 0.00 0.00 0.00 81 1015.5
20260906051602 58 176 0.9 2.6 0.00 0.00 0.00 80 1015.5
20260906050055 58 138 0.9 2.6 0.00 0.00 0.00 81 1015.7
20260906044550 59 0 0.0 1.7 0.00 0.00 0.00 80 1015.6
20260906043052 59 109 1.7 2.6 0.00 0.00 0.00 81 1015.9
20260906041556 60 0 0.0 3.5 0.00 0.00 0.00 80 1015.8
20260906040101 60 0 0.0 0.0 0.00 0.00 0.00 77 1015.8
20260906034554 60 0 0.0 0.0 0.00 0.00 0.00 76 1015.6
20260906033052 61 0 0.0 0.0 0.00 0.00 0.00 76 1015.4
20260906031553 62 0 0.0 0.9 0.00 0.00 0.00 72 1015.3
20260906030055 63 0 0.0 0.0 0.00 0.00 0.00 71 1015.1
20260906024635 64 0 0.0 0.0 0.00 0.00 0.00 66 1015.1
20260906023053 65 0 0.0 0.0 0.00 0.00 0.00 64 1015.1
20260906021555 66 0 0.0 0.0 0.00 0.00 0.00 62 1015.1
20260906020050 66 0 0.0 1.7 0.00 0.00 0.00 61 1015.3
20260906014602 68 0 0.0 3.5 0.00 0.00 0.00 58 1015.3
20260906013047 68 82 0.9 3.5 0.00 0.00 0.00 58 1015.2
20260906011558 69 0 0.9 3.5 0.00 0.00 0.00 56 1015.3
20260906010108 69 0 0.0 1.7 0.00 0.00 0.00 57 1015.3
20260906004553 69 92 1.7 6.1 0.00 0.00 0.00 54 1015.3
20260906003111 70 72 2.6 6.1 0.00 0.00 0.00 51 1015.3
20260906001556 71 113 0.9 3.5 0.00 0.00 0.00 46 1015.4
20260905234553 70 71 1.7 6.1 0.00 0.01 0.00 53 1015.3
20260905233043 73 286 2.6 7.0 0.00 0.01 0.00 49 1015.4
20260905231553 73 287 0.9 6.1 0.00 0.01 0.00 46 1015.5
20260905230049 73 343 2.6 8.7 0.00 0.01 0.00 46 1015.5
20260905224553 72 5 2.6 7.0 0.00 0.02 0.00 48 1015.6
20260905223053 72 278 1.7 5.2 0.00 0.02 0.00 51 1015.6
20260905221553 71 304 0.9 3.5 0.00 0.02 0.00 48 1015.7